Location: Tel Aviv
(32.0670°N, 34.7670°E)
Time: 13:17:33
(UTC+03:00)

Explorer 11/Cluster Stage 4 - Pass Details

Date: 16 September 2024
Orbit: 464 x 1208 km, 28.8° (Epoch: 05 October)

Event Time Altitude Azimuth Distance (km) Brightness Sun altitude
Rises 09:55:35 0° 271° (W) 3,847 9.7 42.1°
Reaches altitude 10° 09:58:14 10° 268° (W) 2,971 9.3 42.6°
Maximum altitude 10:05:41 63° 190° (S) 1,314 8.6 44.0°
Drops below altitude 10° 10:13:33 10° 111° (ESE) 3,132 10.6 45.3°
Sets 10:16:26 0° 108° (ESE) 4,067 10.9 45.8°
